[[{"header":{"parameterUnit":"m.s-1","parameterCategory":1,"la1":30.2991,"la2":30.254,"lo1":-89.0895,"lo2":-89.0444,"dy":0.0017,"dx":0.0017,"nx":28,"ny":28,"refTime":"2025-01-31T03:00:00:Z","depth":0,"parameterNumber":2,"parameterNumberName":"U-component_of_WINDS"},"data":[0,0,0,0,0,0,0,0,0,0,0,0,0,0,0,0,0,0,0,0,0,0,0,0,0,0,0,0,0,0,0,0,0,0,0,0,0,0,0,0,0,0,0,0,0,0,0,0,0,0,0,0,0,0,0,0,0,0,1.0231,1.0231,0,1.0301,1.0301,1.0302,1.0316,1.0315,1.0315,1.0314,1.0386,1.0388,1.0391,0,0,0,0,0,0,0,0,0,0,0,0,0,1.0109,1.0111,1.0231,1.0231,1.0232,1.03,1.0301,1.0302,1.0316,1.0315,1.0315,1.0314,1.0385,1.0388,1.0391,0,0,0,0,0,0,0,0,0,0,0,0,0,1.0168,1.0111,1.023,1.0247,1.025,1.03,1.0301,1.0303,1.0316,1.0315,1.0315,1.0314,1.0384,1.0388,1.0391,1.043,0,0,1.0403,1.0404,0,0,0,0,0,0,0,0,1.0165,1.0173,1.0244,1.0246,1.0249,1.0299,1.0285,1.0345,1.0316,1.0291,1.0314,1.0313,1.0358,1.0363,1.0378,1.0434,1.0437,1.0403,1.0405,1.0407,1.0408,0,0,0,0,0,0,0,1.0161,1.017,1.0258,1.0245,1.0248,1.0251,1.0259,1.0296,1.0328,1.0293,1.0294,1.0302,1.0359,1.0375,1.038,1.0438,1.0403,1.0406,1.0408,1.041,1.0528,1.0529,0,0,0,0,0,0,1.0154,1.0166,1.0256,1.026,1.0204,1.0254,1.0263,1.0284,1.0328,1.0334,1.0303,1.0303,1.0369,1.0376,1.0383,1.0431,1.0407,1.041,1.0412,1.0527,1.0528,1.0529,0,0,0,0,0,0,1.0151,1.0162,1.0253,1.0214,1.0226,1.0257,1.028,1.0285,1.0301,1.0335,1.0341,1.0313,1.0369,1.0378,1.0418,1.0433,1.0412,1.0415,1.0526,1.0527,1.0529,1.0527,0,0,0,0,0,0,1.0147,1.0161,1.0176,1.0214,1.0228,1.0288,1.0281,1.0287,1.0308,1.0308,1.0346,1.0352,1.0369,1.0413,1.0422,1.0438,1.0418,1.0525,1.0526,1.0528,1.0526,1.0528,1.053,0,0,0,0,0,1.0143,1.0172,1.0176,1.0187,1.0247,1.0288,1.0296,1.0315,1.0309,1.0324,1.0346,1.0351,1.043,1.0417,1.0427,1.0444,1.0524,1.0526,1.0528,1.0525,1.0527,1.053,0,0,0,0,0,0,1.0135,1.0178,1.0183,1.0225,1.0253,1.0291,1.0311,1.0317,1.0347,1.0346,1.0368,1.0377,1.0416,1.0434,1.0419,1.0484,1.0477,1.0481,1.047,1.0474,1.0476,1.047,1.0421,0,0,0,0,0,1.0138,1.0168,1.0204,1.0238,1.0252,1.0279,1.0297,1.0309,1.0339,1.0351,1.0375,1.0404,1.0435,1.0456,1.0486,1.0529,1.0537,1.0546,1.0548,1.0549,1.0553,1.0576,1.058,1.0536,1.0536,1.0536,0,0,1.0145,1.0172,1.019,1.0237,1.026,1.029,1.0289,1.0321,1.0343,1.0356,1.0395,1.0414,1.0448,1.0489,1.0509,1.0506,1.0567,1.0552,1.0553,1.0556,1.0578,1.0583,1.0586,1.0538,1.0537,1.0537,0,0,1.0173,1.0197,1.0228,1.0251,1.0285,1.0303,1.031,1.0347,1.036,1.04,1.041,1.0437,1.0491,1.0514,1.0533,1.0569,1.0575,1.0579,1.059,1.0612,1.0616,1.0619,1.0631,1.0636,1.0582,1.0582,1.0582,0,1.0177,1.0223,1.0243,1.0274,1.0295,1.0307,1.0338,1.036,1.0403,1.0416,1.0413,1.048,1.0504,1.055,1.0559,1.0574,1.0583,1.0574,1.0614,1.0617,1.062,1.0632,1.0637,1.0582,1.0582,1.0582,1.0582,0,1.0226,1.0258,1.0279,1.032,1.0343,1.0374,1.0398,1.0419,1.0428,1.0446,1.0487,1.0516,1.0552,1.0564,1.0574,1.0612,1.0609,1.0609,1.0602,1.0624,1.0636,1.0641,1.0583,1.0583,1.0583,1.0583,0,0,1.0251,1.0302,1.0309,1.0328,1.0367,1.0392,1.0424,1.0459,1.0476,1.0506,1.0533,1.0578,1.0578,1.0599,1.0612,1.0632,1.0658,1.063,1.0631,1.0633,1.0701,1.07,1.0705,1.0662,1.0663,1.0664,1.0698,0,1.0283,1.034,1.0358,1.0406,1.0435,1.0447,1.0475,1.0502,1.052,1.0547,1.0567,1.0598,1.0596,1.0609,1.0629,1.0651,1.0672,1.0649,1.0687,1.0688,1.0678,1.0712,1.0711,1.0742,1.0703,1.0704,1.0704,0,1.0328,1.0358,1.0408,1.0443,1.0456,1.0481,1.0514,1.0541,1.0571,1.0583,1.0607,1.0618,1.0651,1.0643,1.0689,1.0672,1.0689,1.0702,1.0704,1.0708,1.0697,1.0716,1.0752,1.0756,1.0712,1.0711,1.0711,0,1.034,1.0392,1.0429,1.0445,1.0487,1.0504,1.0522,1.0552,1.0572,1.0602,1.0615,1.0649,1.0667,1.0692,1.0712,1.0704,1.0756,1.0749,1.0766,1.0766,1.0776,1.0775,1.0815,1.0788,1.0788,1.0788,1.0788,0,1.0373,1.0403,1.0435,1.0458,1.0492,1.0512,1.0546,1.0565,1.0591,1.0617,1.063,1.0655,1.068,1.0708,1.0723,1.0759,1.0767,1.0777,1.0781,1.0776,1.0774,1.0787,1.0785,1.0789,1.0789,1.0789,1.0789,0,1.0392,1.0415,1.0455,1.0492,1.0502,1.0525,1.0556,1.0579,1.0597,1.063,1.0639,1.0668,1.0701,1.0723,1.0766,1.0777,1.0815,1.0819,1.0805,1.0806,1.0822,1.082,1.087,1.0878,1.0847,1.0847,1.0847,0,1.0411,1.0435,1.0474,1.0492,1.0511,1.0541,1.0561,1.0583,1.0603,1.064,1.0658,1.0692,1.072,1.0773,1.0797,1.083,1.0834,1.085,1.0839,1.0833,1.0834,1.0832,1.0834,1.0851,1.0851,1.0851,1.0852,0,1.0443,1.0453,1.0482,1.0516,1.054,1.0567,1.0594,1.0608,1.0634,1.0657,1.0691,1.0713,1.0757,1.079,1.0825,1.0844,1.0852,1.0855,1.086,1.0855,1.0845,1.085,1.0808,1.0853,1.0853,1.0853,1.0853,1.0853,1.0463,1.0484,1.0515,1.0546,1.0569,1.0594,1.0617,1.0638,1.0667,1.0703,1.0715,1.075,1.078,1.0828,1.0847,1.0875,1.0873,1.0882,1.0884,1.0885,1.0885,1.0842,1.0881,1.0881,1.0881,1.0881,1.0881,0,1.0495,1.0515,1.0544,1.0582,1.0607,1.0612,1.0643,1.0663,1.0694,1.0721,1.0749,1.0788,1.0821,1.0848,1.0881,1.0898,1.0903,1.0907,1.0905,1.0909,1.0885,1.0876,1.0902,1.0902,1.0902,1.0902,1.0902,1.0902,1.0514,1.055,1.0564,1.0611,1.0631,1.0666,1.0683,1.0706,1.0728,1.077,1.0798,1.0815,1.0842,1.0878,1.0908,1.0915,1.0927,1.0929,1.0937,1.0913,1.0911,1.0909,1.0901,1.0932,1.0932,1.096,1.096,1.096]},{"header":{"parameterUnit":"m.s-1","parameterCategory":1,"la1":30.2991,"la2":30.254,"lo1":-89.0895,"lo2":-89.0444,"dy":0.0017,"dx":0.0017,"nx":28,"ny":28,"refTime":"2025-01-31T03:00:00:Z","depth":0,"parameterNumber":3,"parameterNumberName":"V-component_of_WINDS"},"data":[0,0,0,0,0,0,0,0,0,0,0,0,0,0,0,0,0,0,0,0,0,0,0,0,0,0,0,0,0,0,0,0,0,0,0,0,0,0,0,0,0,0,0,0,0,0,0,0,0,0,0,0,0,0,0,0,0,0,0.9164,0.9163,0,0.9114,0.9113,0.9113,0.9086,0.9086,0.9086,0.9086,0.9031,0.9029,0.9028,0,0,0,0,0,0,0,0,0,0,0,0,0,0.9234,0.9232,0.9164,0.9163,0.9163,0.9114,0.9113,0.9113,0.9086,0.9086,0.9086,0.9086,0.9031,0.9029,0.9028,0,0,0,0,0,0,0,0,0,0,0,0,0,0.9195,0.9232,0.9164,0.9144,0.9142,0.9114,0.9113,0.9112,0.9086,0.9086,0.9086,0.9086,0.9032,0.903,0.9027,0.9015,0,0,0.9021,0.902,0,0,0,0,0,0,0,0,0.9197,0.9193,0.9147,0.9145,0.9143,0.9106,0.9117,0.908,0.9086,0.9107,0.9086,0.9086,0.9056,0.9051,0.9042,0.9013,0.901,0.9021,0.9019,0.9018,0.9018,0,0,0,0,0,0,0,0.92,0.9195,0.9144,0.9147,0.9144,0.9136,0.9131,0.911,0.9082,0.9105,0.9103,0.9098,0.9054,0.9044,0.9041,0.9009,0.9021,0.9019,0.9017,0.9017,0.8967,0.8967,0,0,0,0,0,0,0.9207,0.9197,0.9146,0.9143,0.9171,0.9135,0.9129,0.9118,0.9082,0.9077,0.9098,0.9097,0.9048,0.9043,0.9039,0.9022,0.9018,0.9016,0.9015,0.8967,0.8967,0.8967,0,0,0,0,0,0,0.9208,0.9202,0.9148,0.9169,0.9162,0.9134,0.9122,0.9117,0.9107,0.9077,0.9071,0.9093,0.9048,0.9042,0.9021,0.9019,0.9015,0.9013,0.8967,0.8967,0.8967,0.8988,0,0,0,0,0,0,0.921,0.9203,0.9199,0.9169,0.9161,0.9133,0.9122,0.9116,0.9104,0.9102,0.9071,0.9066,0.9047,0.9025,0.9019,0.9016,0.9012,0.8967,0.8967,0.8967,0.8988,0.8989,0.899,0,0,0,0,0,0.9213,0.9206,0.9199,0.9193,0.9155,0.9133,0.9127,0.9108,0.9104,0.9099,0.9079,0.9067,0.9021,0.9023,0.9017,0.9013,0.8967,0.8967,0.8967,0.8987,0.8989,0.899,0,0,0,0,0,0,0.9234,0.9202,0.9193,0.9177,0.9158,0.9128,0.9121,0.911,0.909,0.9089,0.9064,0.9057,0.904,0.9024,0.9027,0.8999,0.8992,0.8991,0.901,0.9011,0.9013,0.9017,0.901,0,0,0,0,0,0.9238,0.9223,0.9195,0.9183,0.9174,0.915,0.9139,0.9125,0.9104,0.9095,0.9074,0.9053,0.9034,0.9022,0.9002,0.8985,0.8978,0.898,0.8981,0.8982,0.8981,0.8971,0.8971,0.8967,0.8967,0.8967,0,0,0.9243,0.9224,0.9216,0.9187,0.9171,0.9155,0.9143,0.9127,0.9115,0.9092,0.9073,0.9057,0.9031,0.9013,0.9003,0.8999,0.8981,0.8982,0.8983,0.8982,0.8971,0.8971,0.8972,0.8967,0.8967,0.8967,0,0,0.9246,0.923,0.9219,0.9203,0.9179,0.9162,0.916,0.9132,0.9121,0.9101,0.9084,0.9068,0.9036,0.9018,0.9005,0.9002,0.8989,0.8996,0.9003,0.8993,0.8993,0.8994,0.8992,0.8992,0.8995,0.8995,0.8995,0,0.9256,0.9233,0.9214,0.9199,0.9187,0.9167,0.9155,0.914,0.911,0.9102,0.9098,0.9057,0.9038,0.9015,0.9015,0.9005,0.9,0.9,0.8995,0.8995,0.8995,0.8993,0.8993,0.8996,0.8996,0.8996,0.8996,0,0.9247,0.9231,0.9225,0.9198,0.9185,0.9171,0.9149,0.9137,0.9125,0.9109,0.9089,0.9066,0.9042,0.9035,0.9022,0.901,0.9009,0.9,0.8993,0.8997,0.8995,0.8994,0.8998,0.8998,0.8997,0.8997,0,0,0.9261,0.9225,0.9223,0.921,0.9183,0.917,0.9155,0.9133,0.9123,0.9103,0.909,0.9063,0.9056,0.9041,0.9026,0.9017,0.9016,0.901,0.9009,0.9012,0.9001,0.9008,0.9007,0.9008,0.9007,0.9007,0.9003,0,0.926,0.9235,0.9217,0.9198,0.9183,0.9164,0.9151,0.9132,0.9117,0.9101,0.9083,0.9065,0.9056,0.9047,0.9038,0.9018,0.9014,0.9018,0.8994,0.8993,0.9001,0.9006,0.9013,0.9011,0.9003,0.9002,0.9002,0,0.9255,0.9238,0.9218,0.9192,0.9185,0.9174,0.9152,0.9137,0.9115,0.9104,0.9088,0.9073,0.9056,0.9051,0.9026,0.903,0.9018,0.9007,0.9007,0.9003,0.8998,0.9003,0.9009,0.9009,0.9001,0.9001,0.9001,0,0.9268,0.9239,0.9223,0.9213,0.9183,0.9175,0.9162,0.914,0.9128,0.9108,0.91,0.9078,0.9066,0.9049,0.9028,0.9026,0.9005,0.8998,0.8995,0.8996,0.8991,0.8992,0.8996,0.8985,0.8985,0.8985,0.8985,0,0.9269,0.9257,0.9229,0.9219,0.9205,0.9184,0.9171,0.9156,0.9136,0.9122,0.9104,0.9092,0.9065,0.9048,0.9032,0.9014,0.9008,0.8998,0.8994,0.9,0.9001,0.8992,0.8992,0.8984,0.8984,0.8984,0.8984,0,0.9281,0.9261,0.9243,0.9216,0.9209,0.92,0.9176,0.9165,0.9149,0.9132,0.9127,0.9101,0.9081,0.9058,0.903,0.9019,0.9002,0.8995,0.901,0.9007,0.9006,0.9006,0.9004,0.9002,0.8992,0.8992,0.8992,0,0.9282,0.9273,0.9245,0.9236,0.9223,0.9208,0.9195,0.9174,0.9162,0.9136,0.9128,0.9107,0.9089,0.9057,0.9035,0.9014,0.9007,0.9007,0.9003,0.9009,0.9006,0.9007,0.9006,0.9008,0.9009,0.9009,0.9009,0,0.9287,0.9278,0.9262,0.9243,0.9229,0.9213,0.9195,0.9188,0.9163,0.915,0.913,0.9116,0.9088,0.9067,0.9043,0.9027,0.9014,0.9011,0.9009,0.9015,0.9023,0.9019,0.9013,0.9011,0.901,0.901,0.901,0.901,0.9294,0.9285,0.9264,0.9247,0.9232,0.9216,0.9205,0.9188,0.9171,0.9148,0.9136,0.9116,0.9093,0.906,0.9045,0.9028,0.9024,0.9021,0.902,0.902,0.9022,0.9026,0.9024,0.9023,0.9023,0.9023,0.9023,0,0.9298,0.9284,0.9268,0.9245,0.9231,0.9221,0.9201,0.919,0.9173,0.9154,0.9137,0.9114,0.9094,0.907,0.9048,0.9039,0.9032,0.9034,0.9034,0.9031,0.9027,0.9031,0.904,0.904,0.904,0.904,0.904,0.904,0.9298,0.9283,0.9272,0.9248,0.9234,0.9215,0.9205,0.919,0.9175,0.915,0.9134,0.9119,0.9098,0.9074,0.9054,0.9048,0.904,0.9044,0.9036,0.9032,0.9031,0.903,0.9033,0.9042,0.9042,0.9041,0.9041,0.9041]}]]